EW6383 Weather Reports


time (UTC)temp
C
wind
direction
speed
KPH
gust
KPH
rain 1hr
cm
rain 24hr
cm
rain mn
cm
humidity
%
barometer
mb
20260510193028 29 360 9.7 20.9 0.00 0.10 0.00 75 1016.5
20260510191530 30 360 11.3 27.4 0.00 0.10 0.00 73 1016.4
20260510190028 30 360 14.5 20.9 0.00 0.10 0.00 75 1016.4
20260510184523 30 360 12.9 25.7 0.00 0.10 0.00 75 1016.5
20260510183022 30 360 9.7 24.1 0.00 0.10 0.00 74 1016.7
20260510181522 31 360 12.9 24.1 0.00 0.10 0.00 71 1016.8
20260510180017 30 360 8.0 22.5 0.00 0.10 0.00 74 1016.9
20260510174515 30 360 16.1 25.7 0.00 0.10 0.00 74 1017.1
20260510173017 30 360 11.3 24.1 0.00 0.10 0.00 75 1017.2
20260510171511 31 360 8.0 20.9 0.00 0.10 0.00 73 1017.2
20260510170009 31 360 8.0 20.9 0.00 0.10 0.00 73 1017.2
20260510164514 31 360 11.3 22.5 0.00 0.10 0.00 71 1017.3
20260510163007 31 360 9.7 20.9 0.00 0.10 0.00 71 1017.2
20260510161505 31 360 8.0 20.9 0.00 0.10 0.00 70 1017.3
20260510160007 31 360 6.4 16.1 0.00 0.10 0.00 69 1017.3
20260510154601 30 360 4.8 16.1 0.00 0.10 0.00 69 1017.2
20260510153102 31 360 6.4 16.1 0.00 0.10 0.00 67 1017.2
20260510151556 31 360 6.4 17.7 0.00 0.10 0.00 67 1017.2
20260510144551 30 360 3.2 14.5 0.00 0.10 0.00 70 1017.0
20260510143053 29 360 6.4 17.7 0.00 0.10 0.00 72 1017.2
20260510141544 28 360 8.0 19.3 0.00 0.10 0.00 74 1017.1
20260510140040 28 360 3.2 12.9 0.00 0.10 0.00 77 1017.0
20260510134539 27 360 1.6 12.9 0.00 0.10 0.00 79 1017.0
20260510133037 27 360 8.0 17.7 0.00 0.10 0.00 79 1017.1
20260510131532 26 360 4.8 9.7 0.00 0.10 0.00 81 1016.8
20260510130026 25 360 1.6 8.0 0.00 0.10 0.00 83 1016.6
20260510124525 25 360 0.0 8.0 0.00 0.10 0.00 84 1016.6
20260510123018 25 360 3.2 14.5 0.00 0.10 0.00 85 1016.4
20260510121514 24 360 1.6 8.0 0.00 0.10 0.00 86 1016.4
20260510120013 23 360 3.2 9.7 0.00 0.10 0.00 88 1016.2
20260510114509 23 360 1.6 8.0 0.00 0.10 0.00 90 1016.0
20260510113011 22 360 0.0 8.0 0.00 0.10 0.00 91 1015.8
20260510111502 22 360 0.0 4.8 0.00 0.10 0.00 92 1015.5
20260510110101 22 360 1.6 6.4 0.00 0.10 0.00 92 1015.2
20260510104602 22 360 0.0 0.0 0.00 0.10 0.00 92 1015.0
20260510103102 22 360 0.0 0.0 0.00 0.10 0.00 91 1015.1
20260510101556 22 360 0.0 0.0 0.00 0.10 0.00 91 1014.8
20260510100057 22 360 0.0 0.0 0.00 0.10 0.00 91 1014.6
20260510094556 22 360 0.0 0.0 0.00 0.10 0.00 90 1014.6
20260510093105 22 360 0.0 1.6 0.00 0.10 0.00 90 1014.4
20260510091555 22 360 0.0 6.4 0.00 0.10 0.00 90 1014.2
20260510090052 22 360 0.0 4.8 0.00 0.10 0.00 89 1014.1
20260510084553 23 360 0.0 3.2 0.00 0.10 0.00 89 1014.0
20260510083052 22 360 0.0 0.0 0.00 0.10 0.00 89 1013.7
20260510081616 23 360 1.6 6.4 0.00 0.10 0.00 89 1013.7
20260510080047 23 360 0.0 3.2 0.00 0.10 0.00 89 1013.8
20260510074546 23 360 0.0 8.0 0.00 0.10 0.00 88 1013.7
20260510073054 23 360 0.0 4.8 0.00 0.10 0.00 88 1014.0
20260510071542 23 360 1.6 6.4 0.00 0.10 0.00 88 1014.0
20260510070041 23 360 1.6 6.4 0.00 0.10 0.00 89 1014.3
20260510064551 23 360 0.0 4.8 0.00 0.10 0.00 89 1014.6
20260510063042 23 360 0.0 6.4 0.00 0.10 0.00 91 1014.7
20260510061536 23 360 0.0 1.6 0.00 0.10 0.00 92 1014.7
20260510060042 23 360 1.6 4.8 0.00 0.10 0.00 93 1014.8
20260510054536 23 360 0.0 0.0 0.00 0.10 0.00 94 1015.1
20260510053041 23 360 0.0 4.8 0.00 0.10 0.00 94 1015.4
20260510051529 23 360 0.0 0.0 0.00 0.10 0.00 94 1015.4
20260510050028 23 360 0.0 0.0 0.00 0.10 0.00 94 1015.5
20260510044543 23 360 0.0 0.0 0.00 0.10 0.00 94 1015.5
20260510043030 23 360 0.0 0.0 0.00 0.10 0.00 94 1015.7
20260510041524 23 360 0.0 0.0 0.00 0.10 0.00 93 1015.9
20260510040034 23 360 0.0 0.0 0.00 0.10 0.00 93 1015.8
20260510034517 23 360 0.0 0.0 0.00 0.10 0.00 92 1015.6
20260510033015 23 360 0.0 0.0 0.00 0.10 0.00 92 1015.5
20260510030044 24 360 0.0 0.0 0.10 0.10 0.10 91 1015.3
20260510024534 24 360 0.0 0.0 0.08 0.08 0.08 90 1015.1
20260510023032 24 360 0.0 0.0 0.05 0.05 0.05 88 1015.1
20260510021533 25 360 0.0 1.6 0.00 0.00 0.00 87 1015.1
20260510020032 24 360 0.0 0.0 0.00 0.00 0.00 87 1015.0
20260510014535 24 360 0.0 0.0 0.00 0.00 0.00 87 1014.8
20260510013031 24 360 0.0 0.0 0.00 0.00 0.00 87 1014.6
20260510011531 25 360 0.0 0.0 0.00 0.00 0.00 86 1014.5
20260510010029 25 360 0.0 0.0 0.00 0.00 0.00 85 1014.4
20260510004528 25 360 0.0 3.2 0.00 0.00 0.00 85 1014.2
20260510003027 25 360 0.0 4.8 0.00 0.00 0.00 84 1014.1
20260510001527 26 360 0.0 3.2 0.00 0.00 0.00 82 1014.0
20260510000026 26 360 4.8 9.7 0.00 0.00 0.00 78 1014.1
20260509234536 26 360 6.4 14.5 0.00 0.00 0.00 77 1013.9
20260509233025 27 360 3.2 16.1 0.00 0.00 0.00 76 1013.8
20260509231524 27 360 6.4 14.5 0.00 0.00 0.00 75 1013.8
20260509230025 27 360 3.2 19.3 0.00 0.00 0.00 73 1013.5
20260509224523 27 360 6.4 19.3 0.00 0.00 0.00 72 1013.4
20260509223023 28 360 11.3 20.9 0.00 0.00 0.00 69 1013.4
20260509221522 28 360 8.0 17.7 0.00 0.00 0.00 67 1013.2
20260509220024 29 360 3.2 9.7 0.00 0.00 0.00 64 1013.0
20260509214522 29 360 4.8 17.7 0.00 0.00 0.00 63 1012.9
20260509213021 29 360 6.4 20.9 0.00 0.00 0.00 61 1012.7
20260509211520 30 360 8.0 24.1 0.00 0.00 0.00 57 1012.6
20260509210020 31 360 14.5 24.1 0.00 0.00 0.00 51 1012.4
20260509204519 32 360 9.7 22.5 0.00 0.00 0.00 50 1012.4
20260509203019 32 360 6.4 25.7 0.00 0.00 0.00 53 1012.4
20260509201516 32 360 4.8 20.9 0.00 0.00 0.00 52 1012.4
20260509200015 32 360 8.0 24.1 0.00 0.00 0.00 56 1012.5
20260509194515 32 360 6.4 17.7 0.00 0.00 0.00 55 1012.6